Tracking 19854 objects as of 22-Sep-2019
HD Live streaming from Space Station
objects crossing your sky now

NOAA 16 DEB

Track NOAA 16 DEB now!
10-day predictions


NORAD ID: 42349
Int'l Code: 2000-055QR
Perigee: 857.7 km
Apogee: 869.4 km
Inclination: 98.8 °
Period: 102.1 minutes
Semi major axis: 7234 km
RCS: Unknown
Launch date: September 21, 2000
Source: United States (US)
Launch site: AIR FORCE WESTERN TEST RANGE (AFWTR)

Note: This is SATELLITE DEBRIS
aabbcc
Your satellite tracking list
Your tracking list is empty




NASA's NSSDC Master Catalog

Two Line Element Set (TLE):
1 42349U 00055QR  19263.98286851  .00000491  00000-0  29814-3 0  9991
2 42349  98.8356 332.4937 0008079 283.9002  76.1270 14.10856220179012
Source of the keplerian elements: AFSPC